Terminal Aerodrome Forecast
Issued by NWS Cleveland, OH

Home | Current Version | Previous Version | Graphics & Text | Print | Product List | Glossary On
Versions: 1 2 3 4 5 6 7 8 9 10 11 12 13 14 15 16 17 18 19 20 21 22 23 24 25
000
FTUS41 KCLE 300500 RRA
TAFYNG
TAF
KYNG 300541Z 3006/3106 29008KT 4SM -SHSN BR BKN006 OVC012
      TEMPO 3006/3009 1 1/2SM -FZDZSN OVC006
     FM301000 31012KT 5SM -SHSN SCT006 OVC012
      TEMPO 3010/3013 2SM -SHSN OVC006
     FM301600 32014G22KT P6SM -SHSN SCT015 OVC025
     FM302000 30008KT P6SM SCT025 OVC035=

USA.gov is the U.S. government's official web portal to all federal, state and local government web resources and services.